Flag for Germany Weather past 2 weeks in Schwedt/Oder, Brandenburg, Germany

Now
45 °F

Passing clouds.


Feels Like: 41 °F
Forecast: 42 / 52 °F
Wind: 7 mph from Southwest

Location: Szczecin Airport

Current Time: Dec 18, 2014 at 11:33:19 AM

Latest Report: Dec 18, 2014 at 11:00 AM


Visibility: 5 mi

Pressure: 29.74 "Hg

Humidity: 93%

Dew point: 43 °F

Location of Schwedt/OderLocation

Historic Weather in Schwedt/Oder — Graph

°F

Schwedt/Oder temperature yesterday

Maximum temperature yesterday: 39 °F (at 12:00 AM)
Minimum temperature yesterday: 34 °F (at 8:00 AM)
Average temperature yesterday: 37 °F

Past Weeks' High & Low Weather Summary

 TemperatureHumidityPressure
High50 °F (Dec 12, 8:30 PM)100% (Dec 5, 5:30 AM)30.36 "Hg (Dec 5, 5:30 AM)
Low27 °F (Dec 3, 10:00 AM)71% (Dec 12, 8:30 PM)29.27 "Hg (Dec 12, 7:30 PM)
Average36 °F93%29.92 "Hg
* Reported Dec 3 10:00 AM — Dec 18 10:30 AM, Schwedt/Oder, Weather by CustomWeather, © 2014

Note: Actual official high and low records may vary slightly from our data, if they occured in-between our weather recording intervals... More about our weather records

Advertising

Schwedt/Oder weather history for previous 24 hours

 ConditionsComfort  
Time TempWeatherWind HumidityBarometerVisibility
10:30 AM
Dec 18
45 °FScattered clouds.7 mph100%29.74 "Hg5 mi
10:00 AM45 °FPartly sunny.6 mph93%29.74 "Hg5 mi
9:30 AM43 °FScattered clouds.5 mph100%29.74 "Hg4 mi
9:00 AM43 °FScattered clouds.6 mph100%29.74 "Hg4 mi
8:30 AM43 °FFog.6 mph93%29.74 "Hg3 mi
8:00 AM41 °FFog.5 mph100%29.74 "Hg2 mi
7:30 AM41 °FFog.3 mph100%29.71 "Hg2 mi
7:00 AM43 °FDrizzle. Fog.5 mph93%29.71 "Hg2 mi
6:30 AM41 °FDrizzle. Fog.5 mph100%29.68 "Hg2 mi
6:00 AM41 °FFog.5 mph100%29.68 "Hg2 mi
5:30 AM39 °FDrizzle. Fog.6 mph100%29.68 "Hg1 mi
4:30 AM39 °FDrizzle. Fog.6 mph100%29.68 "Hg1 mi
4:00 AM39 °FDrizzle. Fog.6 mph100%29.65 "Hg2 mi
3:30 AM39 °FFog.5 mph93%29.65 "Hg2 mi
3:00 AM39 °FPartly cloudy.6 mph93%29.65 "Hg4 mi
2:30 AM39 °FPartly cloudy.5 mph93%29.65 "Hg4 mi
2:00 AM37 °FPartly cloudy.5 mph100%29.65 "Hg4 mi
1:30 AM37 °FPartly cloudy.5 mph100%29.65 "Hg5 mi
1:00 AM37 °FPartly cloudy.5 mph93%29.65 "HgN/A
12:30 AM37 °FPartly cloudy.6 mph93%29.65 "HgN/A
12:00 AM37 °FPartly cloudy.5 mph93%29.65 "HgN/A
11:30 PM
Dec 17
37 °FPartly cloudy.5 mph93%29.65 "HgN/A
11:00 PM37 °FPartly cloudy.6 mph93%29.65 "HgN/A
10:30 PM37 °FPassing clouds.6 mph93%29.65 "HgN/A
10:00 PM37 °FPassing clouds.5 mph93%29.62 "HgN/A
9:30 PM37 °FPassing clouds.5 mph93%29.62 "HgN/A
9:00 PM37 °FPartly cloudy.7 mph93%29.62 "HgN/A
8:30 PM37 °FPartly cloudy.8 mph93%29.62 "HgN/A
8:00 PM37 °FPartly cloudy.8 mph87%29.62 "HgN/A
7:30 PM37 °FLight rain. Partly cloudy.7 mph87%29.62 "HgN/A
7:00 PM37 °FPassing clouds.8 mph87%29.62 "HgN/A
6:30 PM37 °FPassing clouds.9 mph81%29.62 "HgN/A
6:00 PM37 °FPassing clouds.8 mph87%29.62 "HgN/A
5:30 PM37 °FClear.8 mph87%29.65 "Hg10 mi
5:00 PM37 °FClear.9 mph87%29.65 "Hg10 mi
4:30 PM37 °FClear.8 mph87%29.65 "Hg10 mi
4:00 PM37 °FClear.9 mph87%29.65 "Hg10 mi
3:30 PM37 °FSunny.7 mph87%29.65 "Hg10 mi
3:00 PM37 °FSunny.8 mph87%29.65 "Hg10 mi
2:30 PM39 °FPassing clouds.7 mph81%29.65 "HgN/A
2:00 PM39 °FSunny.7 mph81%29.65 "Hg10 mi
1:30 PM39 °FScattered clouds.6 mph81%29.68 "HgN/A
1:00 PM39 °FBroken clouds.7 mph81%29.68 "HgN/A
12:30 PM37 °FPartly sunny.8 mph87%29.71 "HgN/A
12:00 PM37 °FPartly sunny.8 mph87%29.71 "HgN/A
11:30 AM36 °FPartly sunny.9 mph93%29.71 "HgN/A
11:00 AM36 °FPartly sunny.8 mph93%29.74 "HgN/A
Weather by CustomWeather, © 2014

See weather overviewHow to use our weather pages